EW4956 Weather Reports


Display with metric or nautical units.
time (UTC)temp
F
wind
direction
speed
MPH
gust
MPH
rain 1hr
in
rain 24hr
in
rain mn
in
humidity
%
barometer
mb
20181118031843 30 178 0.0 3.0 0.00 0.04 0.04 82 1022.6
20181118030153 30 178 0.0 2.0 0.00 0.04 0.04 85 1022.6
20181118024641 30 178 0.0 2.0 0.00 0.04 0.04 87 1022.5
20181118023125 31 178 0.0 3.0 0.00 0.04 0.04 89 1022.4
20181118021608 32 178 0.0 3.0 0.00 0.04 0.04 89 1022.2
20181118020101 33 178 2.0 4.0 0.00 0.04 0.04 89 1022.1
20181118014555 33 178 1.0 3.0 0.00 0.04 0.04 89 1022.1
20181118013137 33 178 0.0 0.0 0.00 0.04 0.04 89 1021.9
20181118011708 34 178 0.0 2.0 0.00 0.04 0.04 88 1021.7
20181118010104 34 178 0.0 0.0 0.00 0.04 0.04 88 1021.3
20181118004554 34 178 1.0 4.0 0.00 0.04 0.04 89 1021.1
20181118003131 34 178 0.0 3.0 0.00 0.04 0.04 89 1020.8
20181118001548 35 178 1.0 3.0 0.00 0.04 0.04 89 1020.6
20181118000059 35 178 1.0 3.0 0.00 0.04 0.04 88 1020.5
20181117234616 36 178 1.0 3.0 0.00 0.04 0.04 88 1020.4
20181117233039 37 178 2.0 4.0 0.00 0.04 0.04 89 1020.4
20181117231551 37 178 2.0 4.0 0.00 0.04 0.04 90 1020.2
20181117230035 36 178 2.0 5.0 0.00 0.04 0.04 90 1019.9
20181117224526 36 178 1.0 4.0 0.00 0.04 0.04 90 1019.8
20181117223042 36 178 0.0 1.0 0.00 0.04 0.04 91 1019.6
20181117221541 35 178 0.0 2.0 0.00 0.04 0.04 91 1019.5
20181117220029 35 178 0.0 2.0 0.00 0.04 0.04 92 1019.3
20181117214550 35 178 1.0 3.0 0.00 0.04 0.04 92 1019.4
20181117213022 35 178 1.0 3.0 0.00 0.04 0.04 92 1019.4
20181117211556 34 178 1.0 5.0 0.00 0.04 0.04 92 1019.2
20181117210026 34 178 2.0 6.0 0.01 0.04 0.04 92 1019.0
20181117204539 34 178 2.0 6.0 0.01 0.04 0.04 91 1019.0
20181117203016 34 178 3.0 6.0 0.01 0.04 0.04 90 1018.8
20181117201514 34 178 2.0 6.0 0.01 0.04 0.04 90 1018.5
20181117200013 34 178 4.0 8.0 0.02 0.03 0.03 89 1018.6
20181117194511 35 178 2.0 7.0 0.02 0.03 0.03 86 1018.7
20181117193024 36 178 0.0 2.0 0.03 0.03 0.03 86 1018.5
20181117191537 35 178 0.0 1.0 0.03 0.03 0.03 87 1018.4
20181117190023 35 178 0.0 0.0 0.01 0.01 0.01 87 1018.4
20181117184505 34 178 1.0 2.0 0.01 0.01 0.01 86 1018.5
20181117183008 34 178 0.0 0.0 0.00 0.00 0.00 85 1018.6
20181117181502 34 178 0.0 0.0 0.00 0.00 0.00 84 1018.7
20181117180227 34 178 0.0 2.0 0.00 0.00 0.00 84 1018.5
20181117174631 34 178 1.0 2.0 0.00 0.00 0.00 82 1018.5
20181117173105 34 178 1.0 3.0 0.00 0.00 0.00 80 1018.4
20181117171644 34 178 2.0 3.0 0.00 0.00 0.00 77 1018.3
20181117170117 34 178 0.0 2.0 0.00 0.00 0.00 70 1018.1
20181117164603 35 178 1.0 2.0 0.00 0.00 0.00 64 1018.1
20181117163122 35 178 0.0 2.0 0.00 0.00 0.00 60 1017.9
20181117161644 36 178 0.0 2.0 0.00 0.00 0.00 58 1017.7
20181117160115 35 178 0.0 2.0 0.00 0.00 0.00 56 1017.5
20181117154618 36 178 1.0 3.0 0.00 0.00 0.00 53 1017.3
20181117153049 37 178 0.0 2.0 0.00 0.00 0.00 50 1017.1
20181117151627 37 178 0.0 2.0 0.00 0.00 0.00 48 1017.0
20181117150108 37 178 0.0 2.0 0.00 0.00 0.00 47 1016.8
20181117144533 37 178 0.0 1.0 0.00 0.00 0.00 47 1016.6
20181117143050 37 178 2.0 4.0 0.00 0.00 0.00 46 1016.6
20181117141537 37 178 0.0 3.0 0.00 0.00 0.00 46 1016.5
20181117140041 37 178 1.0 3.0 0.00 0.00 0.00 47 1016.3
20181117134551 38 178 0.0 3.0 0.00 0.00 0.00 45 1016.3
20181117133035 38 178 1.0 4.0 0.00 0.00 0.00 45 1016.0
20181117131529 38 178 2.0 4.0 0.00 0.00 0.00 46 1015.9
20181117130054 38 178 0.0 2.0 0.00 0.00 0.00 45 1015.9
20181117124523 38 178 1.0 3.0 0.00 0.00 0.00 44 1015.8
20181117123033 37 178 1.0 4.0 0.00 0.00 0.00 45 1015.7
20181117120034 37 178 2.0 3.0 0.00 0.00 0.00 45 1015.8
20181117114602 37 178 1.0 3.0 0.00 0.00 0.00 45 1015.7
20181117113019 37 178 1.0 3.0 0.00 0.00 0.00 44 1015.7
20181117111540 38 178 0.0 2.0 0.00 0.00 0.00 43 1015.6
20181117110029 38 178 0.0 1.0 0.00 0.00 0.00 41 1015.6
20181117104515 37 178 0.0 3.0 0.00 0.00 0.00 42 1015.5
20181117103018 37 178 1.0 2.0 0.00 0.00 0.00 42 1015.5
20181117101519 36 178 2.0 3.0 0.00 0.00 0.00 42 1015.7
20181117100017 37 178 2.0 3.0 0.00 0.00 0.00 42 1015.7
20181117094516 38 178 0.0 0.0 0.00 0.00 0.00 40 1015.7
20181117093004 38 178 0.0 1.0 0.00 0.00 0.00 39 1016.0
20181117091518 37 178 2.0 3.0 0.00 0.00 0.00 40 1015.8
20181117090005 37 178 1.0 3.0 0.00 0.00 0.00 41 1015.9
20181117084636 37 178 3.0 5.0 0.00 0.00 0.00 41 1015.8
20181117083211 38 178 2.0 5.0 0.00 0.00 0.00 38 1015.8
20181117081625 39 178 0.0 3.0 0.00 0.00 0.00 37 1015.9
20181117080230 39 178 2.0 3.0 0.00 0.00 0.00 37 1016.0
20181117074650 39 178 0.0 1.0 0.00 0.00 0.00 37 1016.0
20181117073102 39 178 0.0 1.0 0.00 0.00 0.00 37 1016.0
20181117071605 40 178 0.0 3.0 0.00 0.00 0.00 37 1015.9
20181117070138 40 178 1.0 4.0 0.00 0.00 0.00 37 1015.9
20181117064611 40 178 1.0 3.0 0.00 0.00 0.00 37 1016.0
20181117063131 39 178 1.0 4.0 0.00 0.00 0.00 37 1016.1
20181117061641 39 178 2.0 3.0 0.00 0.00 0.00 38 1016.0
20181117060130 39 178 2.0 4.0 0.00 0.00 0.00 39 1016.1
20181117054616 38 178 0.0 4.0 0.00 0.00 0.00 39 1016.3
20181117053047 38 178 0.0 3.0 0.00 0.00 0.00 38 1016.3
20181117051641 38 178 2.0 5.0 0.00 0.00 0.00 38 1016.4
20181117050100 38 178 3.0 5.0 0.00 0.00 0.00 39 1016.4
20181117044614 39 178 2.0 5.0 0.00 0.00 0.00 36 1016.5
20181117043059 40 178 1.0 3.0 0.00 0.00 0.00 35 1016.5
20181117041623 40 178 2.0 5.0 0.00 0.00 0.00 35 1016.7
20181117040105 40 178 2.0 6.0 0.00 0.00 0.00 35 1016.9
20181117034608 39 178 3.0 6.0 0.00 0.00 0.00 36 1016.9
20181117033106 39 178 3.0 5.0 0.00 0.00 0.00 36 1016.9